Showing default

NUSANTARA TIGA, 57045

Orbit data source: Space-Track

NUSANTARA TIGA, 57045 is a payload satellite owned by SNT (ID) in GEO that was launched on Sun, 18 Jun 2023 UTC via an FALCON 9 launch vehicle from the Air Force Eastern Test Range (AFETR). Payload-class satellites include a variety of spacecraft equipped with specific instruments for various scientific and technological missions. These include communications satellites like Starlink; space stations such as the ISS; scientific satellites like the Hubble; Earth observation satellites from companies like Planet Labs, Umbra, and HawkEye 360; GPS; miniature CubeSats for education and research; and military/defense satellites.

Not visible in the next 10 days
Identifier
57045, 2023-086A
Orbit
GEO
Country
Flag of IDID / INDO
Related business
Manufacturer
Thales Alenia
Mission
Operational Commercial Communications
Bus & Motor
SPACEBUS NEO200, XPS/PPS-5000
Mass
4,600 kg wet, ~4,200 kg dry
Launch date (UTC)
2023-06-18 (3 years ago)
Launch vehicle
FALCON 9
Launch site
Air Force Eastern Test Range (AFETR)
Object type
Payload
Rocket body
Debris
Shape & HBR
Box + 2 Pan, 22.5 m
Radar Cross Section
62.256 m², Large (>1 m²)

Expand to show TLE details & history
Last TLE update: 6 hours ago

TLE from 6 hours ago
0 NUSANTARA TIGA
1 57045U 23086A   26208.56191787 -.00000231  00000-0  00000-0 0  9999
2 57045   0.0371  18.5040 0001855 307.4295 327.5843  1.00268907 10164
Epoch: 2026-07-27T13:29Z
TLE epoch observation values (Epoch: 2026-07-27T13:29:09.703Z)
Latitude
-0.05664°
Longitude
145.9832°
Altitude
35,780.257 km
Speed
3.075 km/s
True Right ascension
19h 34m 04s
True Declination
0° 03' 24"
Sunlit
Object was in daylight at epoch
Visualization orbit readout
Latitude
Unknown
Longitude
Unknown
Altitude
Unknown
Speed
Unknown
Apparent Right ascension
Unknown
Apparent Declination
Unknown
Sunlit
N/A
Visualization observer readout
Local Sidereal Time
08:34:34
Azimuth
Unknown
Elevation
Unknown
Doppler factor
Unknown
Orbital elements
Apogee altitude
35,796.294 km
Perigee altitude
35,780.65 km
Semi-major axis
42,166.609 km
Eccentricity
0.00019
Inclination
0.0371°
RAAN
18.504°
Arg. of periapsis
307.4295°
True anomaly
327.5729°
Mean anomaly
327.5843°
Eccentric anomaly
327.5786°
Mean motion
0.25066 °/min
Orbital period
1,436.19 mins
BSTAR
0
Loading maneuver chart data...
Computing Atmospheric mass density...
Loading historical data...
Loading historical data...
Loading historical data...
Loading historical data...
Loading historical data...
Loading historical data...
Loading historical data...
Other satellites on launch #86 in the year 2023 (2023-06-18 UTC)

Documentation

Showing up to 5 results
|